GFSSE_prec_prec_021.txt.gz
QPF
0.00 0.00 0.00 0.00 0.00 0.01 0.00 0.00 0.00 0.01 0.01 0.01 0.01 0.00 0.01 0.01 0.03 0.06 0.07 0.09 0.02 0.00 0.00 0.02 0.01 0.00 0.00 0.00 0.00 0.00 0.00 0.00 0.00 0.00 0.00 0.00 0.00 0.00 0.00 0.01 0.02 0.00 0.00
0.00 0.00 0.00 0.00 0.01 0.01 0.01 0.01 0.01 0.01 0.01 0.01 0.00 0.00 0.01 0.01 0.03 0.04 0.04 0.05 0.10 0.04 0.00 0.01 0.02 0.02 0.07 0.01 0.01 0.03 0.00 0.00 0.00 0.00 0.00 0.00 0.01 0.00 0.00 0.01 0.02 0.00 0.00
0.00 0.00 0.00 0.00 0.00 0.00 0.01 0.00 0.00 0.00 0.00 0.00 0.00 0.00 0.00 0.00 0.02 0.01 0.03 0.03 0.03 0.02 0.00 0.00 0.00 0.00 0.01 0.00 0.04 0.08 0.00 0.01 0.01 0.00 0.02 0.00 0.01 0.00 0.00 0.01 0.01 0.00 0.01
0.00 0.00 0.00 0.00 0.00 0.00 0.00 0.00 0.00 0.00 0.00 0.00 0.00 0.00 0.00 0.00 0.00 0.00 0.00 0.01 0.00 0.02 0.02 0.00 0.00 0.00 0.00 0.01 0.03 0.11 0.00 0.00 0.00 0.01 0.04 0.00 0.00 0.00 0.00 0.00 0.00 0.00 0.00
0.00 0.00 0.00 0.00 0.00 0.00 0.00 0.00 0.00 0.00 0.00 0.00 0.00 0.00 0.00 0.00 0.00 0.00 0.00 0.00 0.01 0.02 0.01 0.01 0.00 0.00 0.00 0.07 0.04 0.06 0.00 0.00 0.00 0.00 0.03 0.00 0.00 0.00 0.01 0.00 0.00 0.00 0.01
0.00 0.00 0.00 0.00 0.00 0.00 0.00 0.00 0.00 0.00 0.00 0.00 0.00 0.00 0.00 0.00 0.00 0.00 0.00 0.01 0.02 0.04 0.02 0.01 0.00 0.00 0.04 0.07 0.01 0.01 0.00 0.02 0.00 0.01 0.00 0.00 0.01 0.00 0.00 0.00 0.00 0.00 0.01
0.00 0.00 0.00 0.00 0.00 0.00 0.00 0.00 0.00 0.00 0.00 0.00 0.00 0.00 0.00 0.00 0.00 0.00 0.00 0.04 0.03 0.05 0.07 0.01 0.00 0.00 0.01 0.02 0.01 0.02 0.02 0.05 0.03 0.00 0.00 0.00 0.01 0.01 0.00 0.00 0.00 0.00 0.00
0.00 0.00 0.00 0.00 0.00 0.00 0.00 0.00 0.00 0.00 0.00 0.00 0.00 0.00 0.01 0.00 0.03 0.00 0.00 0.01 0.01 0.03 0.06 0.07 0.06 0.02 0.01 0.04 0.00 0.01 0.04 0.05 0.00 0.00 0.00 0.01 0.02 0.00 0.00 0.00 0.00 0.00 0.00
0.00 0.00 0.00 0.00 0.00 0.00 0.00 0.00 0.00 0.00 0.00 0.00 0.00 0.00 0.02 0.01 0.01 0.01 0.00 0.01 0.02 0.03 0.01 0.02 0.04 0.02 0.01 0.07 0.06 0.00 0.00 0.01 0.01 0.00 0.00 0.00 0.00 0.00 0.00 0.00 0.00 0.00 0.00
0.00 0.00 0.00 0.00 0.00 0.00 0.00 0.02 0.05 0.01 0.00 0.00 0.00 0.00 0.00 0.02 0.00 0.00 0.00 0.01 0.00 0.00 0.01 0.01 0.01 0.00 0.00 0.01 0.06 0.01 0.00 0.00 0.00 0.01 0.00 0.00 0.00 0.00 0.01 0.00 0.00 0.00 0.01
0.00 0.00 0.01 0.10 0.08 0.07 0.09 0.03 0.01 0.02 0.00 0.00 0.02 0.01 0.00 0.00 0.00 0.00 0.00 0.04 0.02 0.00 0.00 0.00 0.00 0.00 0.00 0.00 0.00 0.00 0.00 0.00 0.00 0.01 0.10 0.01 0.00 0.00 0.03 0.02 0.00 0.00 0.02
0.00 0.00 0.00 0.02 0.10 0.15 0.15 0.17 0.06 0.04 0.00 0.05 0.05 0.08 0.01 0.02 0.00 0.02 0.01 0.03 0.00 0.00 0.00 0.00 0.00 0.00 0.00 0.00 0.00 0.00 0.00 0.00 0.00 0.00 0.01 0.04 0.01 0.00 0.01 0.01 0.01 0.01 0.03
0.00 0.00 0.00 0.00 0.01 0.04 0.09 0.18 0.17 0.14 0.12 0.19 0.16 0.09 0.01 0.01 0.01 0.01 0.03 0.04 0.02 0.03 0.01 0.04 0.00 0.00 0.00 0.00 0.01 0.00 0.00 0.00 0.00 0.00 0.02 0.01 0.00 0.00 0.00 0.04 0.02 0.00 0.02
0.00 0.00 0.00 0.00 0.01 0.00 0.03 0.03 0.07 0.06 0.09 0.12 0.15 0.04 0.00 0.00 0.01 0.01 0.00 0.01 0.03 0.12 0.08 0.05 0.03 0.01 0.01 0.01 0.03 0.00 0.00 0.00 0.00 0.00 0.04 0.02 0.01 0.02 0.05 0.08 0.06 0.03 0.03
0.00 0.00 0.00 0.00 0.03 0.04 0.09 0.05 0.04 0.12 0.31 0.12 0.06 0.00 0.00 0.00 0.00 0.00 0.00 0.00 0.02 0.07 0.44 0.35 0.11 0.01 0.01 0.03 0.00 0.03 0.02 0.00 0.00 0.00 0.00 0.03 0.04 0.05 0.06 0.11 0.10 0.01 0.00
0.00 0.00 0.00 0.00 0.03 0.06 0.09 0.07 0.07 0.07 0.09 0.00 0.00 0.00 0.00 0.00 0.00 0.00 0.00 0.00 0.01 0.07 0.09 0.27 0.11 0.02 0.00 0.00 0.01 0.00 0.02 0.06 0.01 0.00 0.00 0.02 0.02 0.04 0.06 0.06 0.05 0.01 0.01
0.00 0.00 0.00 0.00 0.00 0.01 0.04 0.06 0.03 0.00 0.00 0.00 0.00 0.00 0.00 0.00 0.00 0.00 0.00 0.02 0.12 0.21 0.23 0.78 0.35 0.04 0.02 0.00 0.00 0.00 0.00 0.02 0.05 0.05 0.01 0.00 0.00 0.00 0.00 0.03 0.02 0.00 0.00
0.00 0.00 0.00 0.00 0.00 0.00 0.01 0.02 0.00 0.02 0.00 0.00 0.00 0.00 0.03 0.00 0.02 0.02 0.02 0.02 0.20 0.37 0.31 0.09 0.05 0.07 0.06 0.02 0.01 0.01 0.01 0.00 0.02 0.08 0.10 0.02 0.00 0.00 0.02 0.01 0.01 0.02 0.01
0.00 0.00 0.00 0.00 0.00 0.00 0.00 0.00 0.00 0.00 0.02 0.00 0.00 0.01 0.03 0.03 0.05 0.06 0.02 0.04 0.05 0.09 0.07 0.06 0.02 0.02 0.05 0.00 0.00 0.00 0.00 0.01 0.00 0.03 0.02 0.03 0.02 0.00 0.00 0.03 0.14 0.13 0.04
0.03 0.00 0.00 0.00 0.00 0.01 0.05 0.02 0.00 0.03 0.11 0.03 0.00 0.00 0.01 0.06 0.08 0.10 0.07 0.04 0.11 0.09 0.02 0.01 0.02 0.00 0.00 0.00 0.00 0.00 0.00 0.01 0.01 0.00 0.01 0.09 0.07 0.05 0.00 0.07 0.27 0.51 0.12
0.03 0.00 0.00 0.00 0.04 0.14 0.17 0.11 0.06 0.06 0.16 0.15 0.01 0.08 0.05 0.05 0.06 0.09 0.10 0.14 0.13 0.08 0.02 0.03 0.06 0.04 0.02 0.04 0.07 0.00 0.00 0.00 0.01 0.00 0.00 0.03 0.04 0.01 0.04 0.11 0.15 0.11 0.05
0.00 0.00 0.00 0.06 0.03 0.04 0.06 0.06 0.10 0.04 0.11 0.15 0.03 0.02 0.03 0.04 0.06 0.10 0.11 0.13 0.13 0.13 0.09 0.06 0.09 0.12 0.09 0.09 0.02 0.00 0.00 0.00 0.00 0.00 0.00 0.05 0.03 0.10 0.07 0.17 0.12 0.09 0.12
0.00 0.00 0.02 0.00 0.00 0.00 0.00 0.03 0.09 0.09 0.13 0.05 0.03 0.00 0.00 0.00 0.00 0.01 0.04 0.10 0.14 0.15 0.11 0.08 0.08 0.04 0.09 0.11 0.05 0.00 0.00 0.00 0.01 0.02 0.01 0.00 0.05 0.12 0.15 0.21 0.17 0.10 0.18
0.00 0.00 0.00 0.00 0.00 0.00 0.00 0.00 0.06 0.14 0.06 0.00 0.00 0.00 0.00 0.00 0.00 0.00 0.02 0.05 0.07 0.14 0.15 0.16 0.10 0.03 0.06 0.08 0.10 0.01 0.00 0.02 0.05 0.07 0.06 0.06 0.09 0.14 0.28 0.30 0.28 0.16 0.12
0.00 0.00 0.00 0.00 0.00 0.00 0.00 0.01 0.08 0.03 0.00 0.00 0.00 0.00 0.00 0.00 0.00 0.00 0.04 0.06 0.07 0.07 0.09 0.15 0.14 0.07 0.03 0.07 0.10 0.06 0.04 0.01 0.03 0.06 0.13 0.08 0.04 0.02 0.04 0.05 0.02 0.01 0.03
0.00 0.00 0.00 0.00 0.00 0.00 0.01 0.04 0.02 0.00 0.00 0.00 0.00 0.00 0.00 0.00 0.01 0.04 0.04 0.05 0.08 0.12 0.12 0.15 0.19 0.09 0.03 0.03 0.12 0.11 0.09 0.03 0.03 0.05 0.15 0.07 0.00 0.00 0.01 0.10 0.03 0.01 0.06

GFSSE_prec_prec_024.txt.gz
QPF
0.00 0.00 0.00 0.00 0.00 0.00 0.00 0.00 0.00 0.00 0.00 0.00 0.00 0.00 0.00 0.01 0.01 0.01 0.02 0.04 0.01 0.00 0.00 0.00 0.00 0.00 0.00 0.00 0.00 0.00 0.00 0.00 0.00 0.00 0.00 0.00 0.00 0.00 0.00 0.04 0.04 0.00 0.00
0.00 0.00 0.00 0.00 0.00 0.00 0.00 0.00 0.00 0.00 0.00 0.00 0.00 0.00 0.00 0.00 0.00 0.01 0.06 0.08 0.03 0.05 0.02 0.02 0.00 0.00 0.00 0.00 0.01 0.00 0.00 0.00 0.00 0.00 0.00 0.00 0.00 0.00 0.00 0.00 0.01 0.00 0.00
0.00 0.00 0.00 0.00 0.00 0.00 0.00 0.00 0.00 0.00 0.00 0.00 0.00 0.00 0.00 0.00 0.00 0.00 0.03 0.04 0.02 0.00 0.01 0.02 0.01 0.04 0.04 0.01 0.03 0.05 0.00 0.00 0.00 0.01 0.02 0.00 0.00 0.00 0.01 0.00 0.00 0.00 0.00
0.00 0.00 0.00 0.00 0.00 0.00 0.00 0.00 0.00 0.00 0.00 0.00 0.00 0.00 0.00 0.00 0.00 0.01 0.02 0.02 0.00 0.00 0.01 0.00 0.00 0.02 0.06 0.08 0.03 0.03 0.00 0.00 0.02 0.12 0.09 0.00 0.00 0.00 0.00 0.00 0.00 0.00 0.00
0.00 0.00 0.00 0.00 0.00 0.00 0.00 0.01 0.00 0.00 0.00 0.00 0.00 0.00 0.00 0.00 0.00 0.00 0.00 0.00 0.01 0.01 0.01 0.01 0.00 0.00 0.01 0.06 0.03 0.01 0.00 0.00 0.01 0.16 0.21 0.01 0.00 0.00 0.00 0.00 0.00 0.00 0.01
0.00 0.00 0.00 0.00 0.00 0.00 0.00 0.00 0.00 0.00 0.00 0.00 0.00 0.00 0.00 0.00 0.00 0.00 0.00 0.00 0.08 0.09 0.01 0.05 0.01 0.00 0.01 0.02 0.01 0.01 0.00 0.00 0.01 0.03 0.03 0.00 0.00 0.01 0.00 0.00 0.00 0.02 0.01
0.00 0.00 0.00 0.00 0.00 0.00 0.00 0.00 0.00 0.00 0.00 0.00 0.00 0.00 0.00 0.01 0.00 0.00 0.00 0.00 0.07 0.05 0.01 0.03 0.04 0.00 0.01 0.01 0.00 0.00 0.00 0.01 0.02 0.02 0.01 0.00 0.00 0.01 0.00 0.00 0.00 0.00 0.00
0.00 0.00 0.00 0.00 0.00 0.00 0.00 0.00 0.00 0.00 0.00 0.00 0.00 0.00 0.00 0.00 0.00 0.00 0.01 0.00 0.01 0.00 0.00 0.00 0.01 0.00 0.00 0.00 0.00 0.00 0.00 0.00 0.04 0.07 0.01 0.01 0.00 0.00 0.00 0.00 0.00 0.00 0.00
0.01 0.00 0.00 0.00 0.00 0.00 0.00 0.00 0.00 0.00 0.00 0.00 0.00 0.00 0.00 0.01 0.01 0.00 0.00 0.00 0.00 0.00 0.00 0.00 0.00 0.00 0.00 0.00 0.00 0.00 0.00 0.00 0.05 0.03 0.06 0.04 0.01 0.00 0.00 0.00 0.00 0.00 0.01
0.00 0.00 0.00 0.00 0.00 0.00 0.00 0.00 0.00 0.01 0.00 0.00 0.00 0.00 0.00 0.00 0.00 0.00 0.00 0.00 0.00 0.00 0.00 0.00 0.00 0.00 0.00 0.01 0.01 0.00 0.00 0.00 0.00 0.02 0.06 0.09 0.05 0.02 0.00 0.00 0.00 0.00 0.00
0.00 0.00 0.00 0.00 0.00 0.01 0.01 0.00 0.00 0.00 0.00 0.00 0.00 0.00 0.00 0.00 0.02 0.04 0.02 0.01 0.00 0.00 0.00 0.00 0.00 0.00 0.01 0.00 0.02 0.01 0.00 0.00 0.00 0.03 0.26 0.15 0.08 0.03 0.00 0.00 0.00 0.00 0.00
0.00 0.00 0.00 0.00 0.00 0.03 0.07 0.06 0.01 0.00 0.01 0.05 0.05 0.01 0.02 0.12 0.07 0.01 0.02 0.03 0.00 0.00 0.00 0.00 0.00 0.01 0.00 0.00 0.00 0.00 0.00 0.00 0.00 0.05 0.28 0.13 0.07 0.04 0.00 0.00 0.00 0.00 0.00
0.00 0.00 0.00 0.00 0.00 0.02 0.08 0.06 0.05 0.02 0.06 0.15 0.12 0.10 0.05 0.08 0.06 0.01 0.06 0.04 0.01 0.00 0.00 0.00 0.00 0.00 0.00 0.00 0.00 0.00 0.00 0.00 0.00 0.00 0.03 0.08 0.04 0.04 0.02 0.01 0.00 0.00 0.00
0.00 0.00 0.00 0.00 0.01 0.03 0.08 0.02 0.02 0.02 0.14 0.18 0.17 0.13 0.14 0.08 0.04 0.04 0.01 0.04 0.07 0.07 0.07 0.12 0.05 0.04 0.04 0.01 0.02 0.01 0.00 0.00 0.00 0.00 0.02 0.09 0.04 0.04 0.04 0.01 0.01 0.00 0.00
0.00 0.00 0.00 0.00 0.00 0.04 0.07 0.23 0.26 0.31 0.89 0.32 0.16 0.10 0.04 0.01 0.01 0.00 0.00 0.00 0.01 0.02 0.08 0.43 0.53 0.52 0.32 0.15 0.06 0.01 0.00 0.00 0.00 0.00 0.02 0.07 0.03 0.02 0.01 0.00 0.01 0.00 0.00
0.00 0.00 0.00 0.00 0.01 0.04 0.03 0.04 0.06 0.16 0.72 0.47 0.06 0.03 0.01 0.00 0.00 0.00 0.00 0.00 0.00 0.00 0.02 0.23 0.76 0.85 0.39 0.16 0.10 0.02 0.00 0.00 0.01 0.01 0.00 0.01 0.02 0.02 0.02 0.00 0.00 0.00 0.00
0.00 0.00 0.00 0.00 0.00 0.01 0.03 0.02 0.01 0.03 0.04 0.05 0.13 0.05 0.00 0.00 0.01 0.00 0.00 0.00 0.00 0.00 0.00 0.19 1.29 1.17 0.56 0.18 0.23 0.12 0.01 0.00 0.01 0.02 0.00 0.00 0.02 0.01 0.05 0.02 0.03 0.01 0.00
0.00 0.00 0.00 0.00 0.00 0.06 0.07 0.03 0.01 0.00 0.00 0.00 0.00 0.00 0.01 0.02 0.01 0.01 0.01 0.01 0.00 0.00 0.00 0.01 0.07 0.69 0.26 0.23 0.13 0.05 0.06 0.03 0.05 0.02 0.02 0.00 0.02 0.01 0.04 0.04 0.06 0.05 0.02
0.00 0.00 0.00 0.00 0.00 0.05 0.15 0.07 0.03 0.00 0.00 0.00 0.00 0.00 0.00 0.00 0.04 0.05 0.01 0.03 0.05 0.01 0.01 0.01 0.02 0.12 0.17 0.09 0.07 0.15 0.09 0.02 0.02 0.01 0.01 0.02 0.02 0.10 0.04 0.09 0.09 0.09 0.04
0.00 0.00 0.00 0.00 0.00 0.16 0.40 0.26 0.07 0.02 0.00 0.00 0.00 0.04 0.18 0.09 0.11 0.10 0.03 0.08 0.11 0.03 0.01 0.04 0.12 0.15 0.09 0.02 0.00 0.00 0.00 0.00 0.01 0.01 0.01 0.01 0.01 0.03 0.12 0.15 0.07 0.13 0.27
0.00 0.10 0.04 0.00 0.03 0.06 0.11 0.18 0.11 0.08 0.02 0.03 0.04 0.50 0.73 0.14 0.12 0.11 0.10 0.10 0.11 0.07 0.08 0.14 0.30 0.28 0.21 0.20 0.06 0.01 0.00 0.00 0.00 0.00 0.00 0.00 0.00 0.00 0.00 0.16 0.08 0.06 0.08
0.00 0.01 0.01 0.01 0.01 0.01 0.01 0.03 0.09 0.10 0.06 0.05 0.06 0.21 0.15 0.05 0.03 0.04 0.10 0.14 0.14 0.16 0.21 0.15 0.18 0.22 0.12 0.13 0.06 0.05 0.03 0.02 0.00 0.00 0.00 0.00 0.00 0.02 0.00 0.06 0.15 0.16 0.11
0.00 0.00 0.00 0.00 0.00 0.00 0.02 0.03 0.04 0.12 0.14 0.14 0.13 0.04 0.04 0.01 0.00 0.00 0.02 0.05 0.08 0.11 0.13 0.29 0.19 0.20 0.16 0.15 0.09 0.08 0.04 0.07 0.01 0.06 0.12 0.06 0.05 0.05 0.05 0.13 0.16 0.24 0.21
0.00 0.00 0.00 0.00 0.00 0.01 0.00 0.00 0.08 0.20 0.11 0.05 0.01 0.01 0.00 0.00 0.00 0.00 0.01 0.03 0.07 0.08 0.09 0.16 0.14 0.17 0.12 0.13 0.06 0.01 0.00 0.06 0.06 0.06 0.07 0.07 0.06 0.04 0.06 0.04 0.07 0.13 0.14
0.00 0.00 0.00 0.00 0.00 0.00 0.00 0.02 0.09 0.10 0.02 0.00 0.00 0.00 0.00 0.01 0.02 0.04 0.06 0.04 0.07 0.08 0.09 0.11 0.14 0.24 0.20 0.20 0.09 0.11 0.06 0.03 0.04 0.05 0.04 0.03 0.04 0.01 0.09 0.13 0.02 0.01 0.07
0.00 0.00 0.00 0.00 0.00 0.00 0.00 0.00 0.01 0.00 0.00 0.00 0.00 0.00 0.00 0.00 0.02 0.07 0.05 0.08 0.09 0.10 0.09 0.13 0.12 0.24 0.28 0.16 0.10 0.10 0.08 0.07 0.07 0.04 0.03 0.01 0.00 0.00 0.02 0.21 0.47 0.51 0.30

GFSSE_prec_prec_030.txt.gz
QPF
0.00 0.00 0.00 0.02 0.02 0.00 0.00 0.00 0.00 0.00 0.00 0.00 0.00 0.01 0.02 0.02 0.02 0.00 0.00 0.00 0.00 0.00 0.00 0.00 0.02 0.02 0.00 0.00 0.00 0.00 0.00 0.00 0.00 0.00 0.00 0.00 0.00 0.04 0.01 0.00 0.00 0.00 0.01
0.00 0.00 0.01 0.00 0.00 0.00 0.00 0.00 0.00 0.00 0.00 0.00 0.00 0.00 0.01 0.02 0.02 0.01 0.00 0.00 0.00 0.00 0.00 0.00 0.00 0.00 0.00 0.00 0.00 0.00 0.00 0.01 0.07 0.02 0.00 0.00 0.00 0.05 0.02 0.00 0.00 0.00 0.00
0.00 0.00 0.00 0.00 0.00 0.00 0.00 0.00 0.00 0.00 0.00 0.00 0.00 0.00 0.00 0.00 0.00 0.01 0.01 0.00 0.00 0.00 0.03 0.00 0.00 0.00 0.00 0.00 0.00 0.01 0.00 0.00 0.04 0.04 0.00 0.02 0.00 0.04 0.03 0.00 0.00 0.00 0.01
0.00 0.00 0.00 0.00 0.00 0.00 0.00 0.00 0.00 0.00 0.00 0.00 0.00 0.00 0.00 0.00 0.00 0.00 0.00 0.00 0.00 0.00 0.00 0.01 0.01 0.00 0.00 0.01 0.00 0.01 0.01 0.01 0.00 0.01 0.00 0.00 0.00 0.00 0.00 0.00 0.00 0.00 0.00
0.00 0.00 0.00 0.00 0.00 0.00 0.00 0.00 0.00 0.00 0.00 0.00 0.00 0.00 0.00 0.00 0.00 0.00 0.00 0.00 0.00 0.00 0.01 0.00 0.00 0.00 0.02 0.06 0.00 0.00 0.04 0.08 0.02 0.01 0.00 0.00 0.00 0.00 0.00 0.00 0.00 0.00 0.00
0.00 0.00 0.00 0.00 0.00 0.00 0.00 0.00 0.00 0.00 0.00 0.00 0.00 0.00 0.00 0.00 0.00 0.00 0.00 0.00 0.00 0.00 0.01 0.02 0.01 0.01 0.05 0.08 0.01 0.03 0.04 0.07 0.03 0.00 0.00 0.00 0.00 0.00 0.00 0.00 0.00 0.00 0.00
0.00 0.00 0.00 0.00 0.00 0.00 0.00 0.00 0.00 0.00 0.00 0.00 0.00 0.00 0.00 0.00 0.00 0.00 0.00 0.00 0.00 0.00 0.01 0.03 0.08 0.01 0.08 0.09 0.01 0.05 0.03 0.07 0.05 0.00 0.00 0.00 0.00 0.01 0.00 0.00 0.02 0.00 0.00
0.00 0.00 0.00 0.00 0.00 0.00 0.00 0.00 0.00 0.00 0.00 0.00 0.00 0.00 0.00 0.00 0.00 0.00 0.00 0.00 0.00 0.00 0.00 0.00 0.01 0.01 0.02 0.09 0.02 0.04 0.05 0.02 0.04 0.01 0.00 0.00 0.02 0.02 0.00 0.00 0.00 0.00 0.00
0.00 0.00 0.00 0.00 0.00 0.00 0.00 0.00 0.00 0.00 0.00 0.00 0.00 0.00 0.00 0.00 0.00 0.00 0.00 0.00 0.00 0.00 0.00 0.00 0.00 0.00 0.01 0.03 0.03 0.05 0.05 0.05 0.04 0.00 0.00 0.00 0.03 0.02 0.00 0.00 0.00 0.00 0.00
0.00 0.00 0.00 0.00 0.00 0.00 0.00 0.00 0.00 0.00 0.00 0.00 0.00 0.00 0.00 0.00 0.00 0.00 0.00 0.00 0.00 0.00 0.00 0.00 0.00 0.00 0.00 0.00 0.02 0.02 0.02 0.04 0.04 0.02 0.00 0.00 0.01 0.02 0.00 0.00 0.00 0.00 0.00
0.00 0.00 0.00 0.00 0.00 0.00 0.00 0.00 0.00 0.00 0.00 0.00 0.00 0.00 0.00 0.00 0.00 0.00 0.03 0.03 0.01 0.00 0.00 0.00 0.00 0.01 0.00 0.00 0.00 0.00 0.00 0.01 0.00 0.00 0.00 0.01 0.01 0.00 0.00 0.00 0.00 0.00 0.00
0.00 0.00 0.00 0.00 0.00 0.00 0.00 0.00 0.00 0.00 0.00 0.00 0.00 0.00 0.00 0.00 0.00 0.03 0.07 0.06 0.01 0.00 0.00 0.00 0.01 0.03 0.02 0.00 0.02 0.03 0.00 0.00 0.00 0.00 0.00 0.04 0.05 0.01 0.00 0.00 0.00 0.00 0.00
0.00 0.00 0.00 0.00 0.00 0.00 0.00 0.00 0.00 0.00 0.00 0.00 0.00 0.05 0.04 0.00 0.00 0.01 0.04 0.07 0.07 0.04 0.00 0.00 0.01 0.00 0.00 0.01 0.02 0.03 0.04 0.00 0.00 0.01 0.01 0.08 0.04 0.03 0.01 0.00 0.00 0.00 0.00
0.00 0.00 0.00 0.00 0.00 0.00 0.01 0.01 0.00 0.01 0.13 0.13 0.12 0.10 0.02 0.00 0.00 0.00 0.02 0.04 0.05 0.05 0.01 0.00 0.00 0.00 0.00 0.00 0.00 0.04 0.03 0.00 0.00 0.00 0.02 0.02 0.07 0.10 0.03 0.00 0.00 0.00 0.00
0.00 0.00 0.00 0.00 0.00 0.00 0.03 0.09 0.08 0.06 0.01 0.05 0.16 0.09 0.00 0.00 0.00 0.06 0.13 0.17 0.12 0.08 0.02 0.04 0.01 0.00 0.05 0.04 0.00 0.00 0.01 0.07 0.07 0.01 0.00 0.04 0.05 0.06 0.05 0.04 0.01 0.00 0.00
0.00 0.00 0.00 0.05 0.06 0.07 0.07 0.16 0.17 0.06 0.00 0.07 0.12 0.08 0.01 0.00 0.00 0.04 0.06 0.04 0.01 0.03 0.03 0.02 0.00 0.00 0.02 0.06 0.02 0.00 0.00 0.03 0.03 0.02 0.00 0.06 0.12 0.07 0.05 0.06 0.07 0.05 0.03
0.00 0.00 0.00 0.05 0.10 0.10 0.10 0.18 0.19 0.12 0.06 0.02 0.02 0.02 0.00 0.00 0.00 0.01 0.05 0.03 0.03 0.02 0.00 0.00 0.00 0.00 0.00 0.01 0.03 0.01 0.01 0.02 0.00 0.05 0.02 0.00 0.02 0.05 0.03 0.03 0.09 0.12 0.08
0.00 0.00 0.00 0.00 0.08 0.08 0.04 0.06 0.06 0.05 0.09 0.05 0.02 0.02 0.03 0.04 0.02 0.05 0.05 0.10 0.09 0.07 0.05 0.06 0.00 0.00 0.00 0.00 0.00 0.00 0.00 0.00 0.00 0.02 0.07 0.02 0.00 0.00 0.03 0.01 0.05 0.11 0.10
0.00 0.00 0.00 0.06 0.31 0.13 0.02 0.00 0.01 0.06 0.14 0.10 0.05 0.08 0.12 0.08 0.02 0.04 0.01 0.12 0.22 0.04 0.17 0.13 0.10 0.01 0.00 0.00 0.00 0.00 0.00 0.00 0.00 0.00 0.02 0.02 0.00 0.00 0.00 0.01 0.12 0.11 0.09
0.00 0.00 0.03 0.16 0.24 0.13 0.04 0.00 0.00 0.02 0.10 0.08 0.02 0.06 0.16 0.09 0.01 0.02 0.01 0.09 0.18 0.10 0.04 0.09 0.04 0.01 0.00 0.00 0.00 0.01 0.01 0.00 0.01 0.00 0.00 0.00 0.00 0.01 0.00 0.00 0.08 0.06 0.05
0.00 0.02 0.06 0.18 0.22 0.10 0.07 0.04 0.01 0.02 0.09 0.08 0.13 0.07 0.02 0.02 0.01 0.00 0.00 0.00 0.00 0.02 0.07 0.07 0.08 0.04 0.08 0.06 0.07 0.03 0.03 0.01 0.00 0.00 0.00 0.01 0.02 0.08 0.01 0.00 0.06 0.09 0.11
0.00 0.04 0.17 0.10 0.09 0.09 0.04 0.01 0.00 0.01 0.03 0.08 0.16 0.07 0.03 0.01 0.00 0.00 0.01 0.00 0.00 0.00 0.00 0.04 0.10 0.07 0.06 0.07 0.09 0.08 0.02 0.03 0.01 0.00 0.01 0.02 0.02 0.08 0.04 0.06 0.04 0.05 0.15
0.02 0.03 0.07 0.02 0.02 0.01 0.00 0.00 0.00 0.00 0.00 0.00 0.00 0.00 0.00 0.00 0.00 0.03 0.09 0.10 0.02 0.00 0.00 0.00 0.00 0.01 0.04 0.07 0.03 0.05 0.07 0.05 0.02 0.00 0.01 0.02 0.05 0.04 0.09 0.11 0.09 0.03 0.02
0.01 0.03 0.00 0.00 0.00 0.00 0.00 0.00 0.00 0.00 0.00 0.00 0.00 0.00 0.00 0.00 0.00 0.00 0.02 0.03 0.01 0.00 0.00 0.00 0.00 0.00 0.01 0.07 0.10 0.13 0.09 0.04 0.07 0.05 0.06 0.07 0.05 0.01 0.09 0.10 0.08 0.04 0.04
0.00 0.00 0.00 0.00 0.00 0.00 0.00 0.00 0.00 0.00 0.00 0.00 0.00 0.00 0.00 0.00 0.00 0.00 0.00 0.00 0.00 0.00 0.00 0.00 0.00 0.00 0.00 0.00 0.01 0.01 0.07 0.06 0.16 0.18 0.11 0.12 0.10 0.04 0.08 0.07 0.06 0.08 0.15
0.00 0.00 0.00 0.00 0.00 0.00 0.00 0.00 0.00 0.00 0.00 0.00 0.00 0.00 0.00 0.00 0.00 0.00 0.00 0.00 0.00 0.00 0.00 0.00 0.00 0.00 0.00 0.00 0.00 0.01 0.02 0.01 0.04 0.10 0.12 0.07 0.02 0.03 0.07 0.02 0.09 0.16 0.27

GFSSE_prec_prec_033.txt.gz
QPF
0.01 0.01 0.01 0.06 0.06 0.05 0.00 0.00 0.00 0.00 0.00 0.00 0.00 0.00 0.01 0.04 0.06 0.04 0.03 0.05 0.07 0.04 0.00 0.00 0.00 0.00 0.01 0.01 0.00 0.01 0.00 0.00 0.00 0.00 0.00 0.01 0.00 0.03 0.01 0.00 0.00 0.00 0.01
0.00 0.00 0.00 0.02 0.01 0.01 0.00 0.00 0.00 0.00 0.00 0.00 0.00 0.00 0.01 0.01 0.02 0.02 0.03 0.02 0.06 0.04 0.00 0.02 0.01 0.00 0.00 0.00 0.00 0.00 0.00 0.01 0.01 0.00 0.02 0.03 0.02 0.02 0.00 0.00 0.00 0.00 0.00
0.00 0.00 0.00 0.03 0.01 0.00 0.00 0.00 0.00 0.00 0.00 0.00 0.00 0.00 0.00 0.00 0.00 0.00 0.01 0.01 0.03 0.18 0.04 0.01 0.01 0.00 0.01 0.00 0.00 0.00 0.02 0.03 0.02 0.01 0.01 0.01 0.04 0.03 0.00 0.00 0.00 0.00 0.00
0.00 0.00 0.00 0.01 0.00 0.00 0.00 0.00 0.00 0.00 0.00 0.00 0.00 0.00 0.00 0.00 0.00 0.00 0.00 0.00 0.00 0.02 0.03 0.07 0.16 0.03 0.04 0.03 0.00 0.00 0.00 0.01 0.00 0.00 0.00 0.00 0.00 0.00 0.00 0.00 0.02 0.01 0.00
0.00 0.00 0.00 0.00 0.00 0.00 0.00 0.00 0.00 0.00 0.00 0.00 0.00 0.00 0.00 0.00 0.00 0.00 0.00 0.00 0.00 0.00 0.00 0.00 0.06 0.14 0.13 0.03 0.01 0.01 0.03 0.13 0.04 0.00 0.00 0.00 0.00 0.00 0.00 0.00 0.01 0.00 0.00
0.00 0.00 0.00 0.00 0.00 0.00 0.00 0.00 0.00 0.00 0.00 0.00 0.00 0.00 0.00 0.00 0.00 0.00 0.00 0.00 0.00 0.00 0.00 0.00 0.02 0.18 0.18 0.01 0.03 0.09 0.02 0.16 0.12 0.01 0.00 0.00 0.00 0.00 0.00 0.00 0.00 0.01 0.00
0.00 0.00 0.00 0.00 0.00 0.00 0.00 0.00 0.00 0.00 0.00 0.00 0.00 0.00 0.00 0.00 0.00 0.00 0.00 0.00 0.00 0.00 0.02 0.06 0.01 0.10 0.09 0.02 0.03 0.03 0.04 0.04 0.01 0.00 0.00 0.00 0.00 0.00 0.00 0.00 0.00 0.00 0.00
0.00 0.00 0.00 0.00 0.00 0.00 0.00 0.00 0.00 0.00 0.00 0.00 0.00 0.00 0.00 0.00 0.00 0.00 0.00 0.00 0.00 0.00 0.04 0.12 0.02 0.12 0.04 0.01 0.01 0.00 0.03 0.04 0.03 0.00 0.00 0.00 0.00 0.00 0.00 0.00 0.00 0.00 0.00
0.00 0.00 0.00 0.00 0.00 0.00 0.00 0.00 0.00 0.00 0.00 0.00 0.00 0.00 0.00 0.00 0.00 0.00 0.00 0.00 0.00 0.01 0.02 0.10 0.02 0.09 0.03 0.00 0.00 0.00 0.00 0.03 0.01 0.00 0.00 0.00 0.00 0.01 0.00 0.00 0.00 0.00 0.00
0.00 0.00 0.00 0.00 0.00 0.00 0.00 0.00 0.00 0.00 0.00 0.00 0.00 0.00 0.00 0.00 0.00 0.00 0.00 0.00 0.01 0.02 0.00 0.06 0.08 0.02 0.12 0.04 0.01 0.00 0.03 0.00 0.02 0.00 0.00 0.00 0.00 0.00 0.00 0.00 0.00 0.00 0.00
0.00 0.00 0.00 0.00 0.00 0.00 0.00 0.00 0.00 0.00 0.00 0.00 0.00 0.00 0.00 0.00 0.00 0.00 0.00 0.00 0.00 0.00 0.00 0.01 0.08 0.10 0.12 0.13 0.07 0.03 0.04 0.01 0.00 0.01 0.00 0.02 0.05 0.03 0.00 0.00 0.00 0.00 0.00
0.00 0.00 0.00 0.00 0.00 0.00 0.00 0.00 0.00 0.00 0.00 0.00 0.00 0.00 0.00 0.00 0.00 0.00 0.01 0.01 0.00 0.00 0.00 0.01 0.03 0.04 0.02 0.05 0.06 0.03 0.05 0.01 0.00 0.02 0.03 0.05 0.10 0.08 0.01 0.00 0.00 0.00 0.00
0.00 0.00 0.00 0.00 0.00 0.00 0.00 0.00 0.00 0.00 0.00 0.00 0.00 0.00 0.00 0.00 0.00 0.00 0.00 0.00 0.00 0.00 0.00 0.00 0.00 0.00 0.01 0.00 0.00 0.00 0.01 0.00 0.00 0.00 0.01 0.03 0.05 0.08 0.06 0.00 0.00 0.00 0.00
0.00 0.00 0.00 0.00 0.00 0.00 0.00 0.00 0.00 0.00 0.04 0.09 0.01 0.02 0.01 0.00 0.01 0.00 0.00 0.00 0.00 0.00 0.00 0.00 0.00 0.00 0.00 0.00 0.01 0.03 0.00 0.00 0.00 0.00 0.00 0.01 0.02 0.07 0.17 0.06 0.00 0.00 0.00
0.00 0.00 0.00 0.00 0.00 0.01 0.06 0.02 0.02 0.03 0.18 0.12 0.14 0.07 0.05 0.04 0.05 0.00 0.00 0.01 0.00 0.00 0.00 0.01 0.04 0.02 0.01 0.00 0.00 0.01 0.02 0.00 0.00 0.00 0.00 0.01 0.02 0.04 0.10 0.17 0.02 0.00 0.00
0.00 0.00 0.00 0.00 0.00 0.01 0.03 0.03 0.02 0.01 0.03 0.00 0.06 0.02 0.00 0.00 0.00 0.00 0.01 0.01 0.00 0.00 0.00 0.01 0.03 0.05 0.03 0.00 0.02 0.01 0.00 0.00 0.00 0.00 0.00 0.03 0.07 0.02 0.05 0.12 0.09 0.02 0.02
0.00 0.00 0.04 0.03 0.04 0.01 0.08 0.13 0.03 0.00 0.02 0.01 0.03 0.03 0.00 0.00 0.00 0.01 0.00 0.00 0.00 0.01 0.00 0.00 0.00 0.00 0.01 0.00 0.03 0.02 0.01 0.00 0.00 0.00 0.00 0.00 0.01 0.02 0.05 0.06 0.12 0.07 0.05
0.00 0.00 0.01 0.10 0.17 0.22 0.28 0.21 0.01 0.01 0.02 0.02 0.00 0.00 0.03 0.02 0.03 0.07 0.08 0.07 0.12 0.15 0.09 0.04 0.01 0.01 0.00 0.00 0.00 0.00 0.00 0.00 0.00 0.00 0.00 0.00 0.00 0.00 0.01 0.04 0.06 0.07 0.08
0.00 0.00 0.01 0.28 0.28 0.31 0.15 0.10 0.00 0.01 0.11 0.04 0.00 0.02 0.03 0.05 0.06 0.15 0.07 0.23 0.29 0.13 0.06 0.03 0.05 0.07 0.00 0.00 0.00 0.00 0.00 0.00 0.00 0.00 0.00 0.00 0.00 0.00 0.00 0.02 0.13 0.13 0.07
0.00 0.00 0.02 0.20 0.12 0.06 0.16 0.09 0.03 0.01 0.06 0.08 0.00 0.01 0.02 0.01 0.01 0.01 0.03 0.02 0.01 0.01 0.00 0.00 0.02 0.03 0.00 0.00 0.00 0.00 0.00 0.00 0.00 0.00 0.00 0.00 0.00 0.00 0.00 0.00 0.05 0.07 0.17
0.00 0.00 0.06 0.15 0.05 0.10 0.19 0.06 0.02 0.02 0.06 0.07 0.00 0.00 0.02 0.02 0.00 0.00 0.00 0.00 0.00 0.00 0.00 0.00 0.01 0.03 0.00 0.01 0.00 0.00 0.00 0.00 0.00 0.00 0.00 0.00 0.01 0.07 0.01 0.00 0.00 0.01 0.07
0.00 0.00 0.09 0.11 0.08 0.08 0.04 0.02 0.01 0.01 0.01 0.00 0.00 0.02 0.01 0.02 0.01 0.00 0.00 0.03 0.02 0.01 0.00 0.00 0.00 0.00 0.00 0.03 0.01 0.01 0.01 0.01 0.01 0.01 0.00 0.00 0.00 0.04 0.01 0.00 0.00 0.00 0.01
0.00 0.04 0.07 0.10 0.05 0.00 0.00 0.00 0.00 0.01 0.02 0.02 0.01 0.01 0.00 0.00 0.00 0.00 0.00 0.02 0.00 0.00 0.00 0.00 0.00 0.00 0.00 0.03 0.01 0.01 0.01 0.01 0.00 0.00 0.00 0.00 0.00 0.01 0.00 0.03 0.01 0.01 0.00
0.00 0.03 0.07 0.04 0.00 0.00 0.00 0.00 0.00 0.02 0.04 0.01 0.00 0.00 0.00 0.00 0.00 0.00 0.00 0.00 0.00 0.00 0.00 0.00 0.00 0.00 0.00 0.00 0.00 0.00 0.00 0.01 0.01 0.01 0.00 0.00 0.00 0.02 0.05 0.05 0.03 0.02 0.03
0.01 0.00 0.00 0.00 0.00 0.00 0.00 0.00 0.00 0.00 0.01 0.00 0.00 0.00 0.00 0.00 0.00 0.00 0.00 0.00 0.00 0.00 0.00 0.00 0.00 0.00 0.00 0.00 0.00 0.00 0.01 0.06 0.15 0.07 0.02 0.02 0.07 0.14 0.11 0.03 0.01 0.03 0.02
0.01 0.00 0.00 0.00 0.00 0.00 0.00 0.00 0.00 0.00 0.00 0.00 0.00 0.00 0.00 0.00 0.00 0.00 0.00 0.00 0.00 0.00 0.00 0.00 0.00 0.00 0.00 0.00 0.00 0.00 0.01 0.02 0.09 0.09 0.04 0.05 0.03 0.06 0.03 0.02 0.00 0.00 0.03

GFSSE_prec_prec_036.txt.gz
QPF
0.00 0.00 0.01 0.02 0.00 0.00 0.00 0.00 0.00 0.00 0.00 0.00 0.00 0.01 0.03 0.03 0.07 0.04 0.03 0.04 0.08 0.08 0.00 0.00 0.00 0.00 0.01 0.02 0.01 0.00 0.00 0.00 0.00 0.00 0.00 0.01 0.02 0.00 0.02 0.02 0.00 0.00 0.00
0.00 0.00 0.00 0.01 0.02 0.01 0.00 0.00 0.00 0.00 0.00 0.00 0.00 0.00 0.00 0.00 0.00 0.01 0.02 0.07 0.08 0.09 0.00 0.02 0.00 0.00 0.00 0.00 0.01 0.01 0.00 0.00 0.00 0.01 0.02 0.03 0.03 0.00 0.02 0.03 0.01 0.00 0.01
0.00 0.00 0.00 0.02 0.03 0.01 0.00 0.00 0.00 0.00 0.00 0.00 0.00 0.00 0.00 0.01 0.01 0.01 0.01 0.03 0.07 0.08 0.10 0.06 0.01 0.00 0.00 0.00 0.00 0.00 0.00 0.02 0.01 0.02 0.03 0.03 0.02 0.00 0.00 0.02 0.03 0.01 0.02
0.00 0.00 0.00 0.00 0.00 0.00 0.00 0.00 0.00 0.00 0.00 0.00 0.00 0.00 0.00 0.01 0.01 0.00 0.02 0.04 0.10 0.07 0.09 0.14 0.14 0.02 0.01 0.00 0.01 0.00 0.00 0.00 0.01 0.00 0.00 0.00 0.00 0.00 0.00 0.00 0.00 0.00 0.00
0.00 0.00 0.00 0.00 0.00 0.00 0.00 0.00 0.00 0.00 0.00 0.00 0.00 0.00 0.00 0.00 0.01 0.01 0.00 0.00 0.03 0.07 0.08 0.05 0.05 0.12 0.04 0.00 0.02 0.00 0.00 0.01 0.00 0.00 0.00 0.00 0.00 0.00 0.00 0.00 0.01 0.00 0.02
0.00 0.00 0.00 0.00 0.00 0.00 0.00 0.00 0.00 0.00 0.00 0.00 0.00 0.00 0.00 0.00 0.00 0.00 0.00 0.00 0.00 0.00 0.01 0.05 0.09 0.08 0.06 0.00 0.01 0.04 0.05 0.03 0.00 0.00 0.00 0.00 0.00 0.00 0.00 0.00 0.00 0.00 0.00
0.00 0.00 0.00 0.00 0.00 0.00 0.00 0.00 0.00 0.00 0.00 0.00 0.00 0.00 0.00 0.00 0.00 0.00 0.00 0.00 0.00 0.00 0.01 0.03 0.09 0.05 0.06 0.01 0.01 0.02 0.02 0.06 0.03 0.00 0.00 0.00 0.00 0.00 0.00 0.00 0.00 0.00 0.00
0.00 0.00 0.00 0.00 0.00 0.00 0.00 0.00 0.00 0.00 0.00 0.00 0.00 0.00 0.00 0.00 0.00 0.00 0.00 0.00 0.01 0.00 0.00 0.01 0.13 0.06 0.08 0.03 0.03 0.04 0.07 0.09 0.02 0.00 0.00 0.00 0.00 0.00 0.00 0.00 0.00 0.00 0.00
0.01 0.00 0.00 0.00 0.00 0.00 0.00 0.00 0.00 0.00 0.00 0.00 0.00 0.00 0.00 0.00 0.00 0.00 0.00 0.00 0.00 0.01 0.00 0.02 0.09 0.07 0.09 0.03 0.03 0.02 0.03 0.07 0.02 0.00 0.00 0.00 0.00 0.00 0.00 0.02 0.00 0.00 0.00
0.00 0.00 0.00 0.00 0.00 0.00 0.00 0.00 0.00 0.00 0.00 0.00 0.00 0.00 0.00 0.00 0.00 0.00 0.00 0.00 0.00 0.00 0.00 0.00 0.06 0.14 0.10 0.06 0.00 0.00 0.02 0.01 0.05 0.02 0.00 0.00 0.01 0.01 0.00 0.02 0.01 0.00 0.00
0.00 0.00 0.00 0.00 0.00 0.00 0.00 0.00 0.00 0.00 0.00 0.00 0.00 0.00 0.00 0.00 0.00 0.00 0.00 0.00 0.00 0.00 0.00 0.00 0.01 0.05 0.04 0.02 0.01 0.00 0.01 0.00 0.00 0.00 0.02 0.01 0.04 0.05 0.01 0.01 0.02 0.00 0.00
0.00 0.00 0.00 0.01 0.01 0.00 0.00 0.00 0.00 0.00 0.00 0.00 0.00 0.00 0.00 0.00 0.01 0.02 0.06 0.02 0.00 0.00 0.00 0.00 0.00 0.02 0.06 0.00 0.01 0.02 0.00 0.00 0.00 0.01 0.02 0.00 0.02 0.02 0.04 0.02 0.00 0.00 0.00
0.00 0.00 0.00 0.00 0.00 0.01 0.00 0.00 0.00 0.00 0.00 0.01 0.05 0.02 0.01 0.00 0.00 0.06 0.12 0.18 0.06 0.02 0.01 0.00 0.00 0.00 0.04 0.02 0.00 0.02 0.00 0.00 0.00 0.00 0.00 0.02 0.03 0.01 0.07 0.02 0.00 0.00 0.00
0.00 0.00 0.00 0.00 0.00 0.02 0.00 0.01 0.00 0.00 0.02 0.05 0.07 0.06 0.09 0.05 0.00 0.01 0.00 0.04 0.06 0.01 0.04 0.00 0.00 0.00 0.00 0.00 0.00 0.00 0.00 0.00 0.00 0.00 0.00 0.01 0.07 0.04 0.07 0.18 0.07 0.00 0.00
0.01 0.00 0.00 0.00 0.00 0.02 0.04 0.09 0.10 0.12 0.15 0.04 0.03 0.10 0.15 0.18 0.05 0.04 0.00 0.00 0.00 0.00 0.00 0.00 0.00 0.00 0.00 0.00 0.00 0.00 0.00 0.00 0.00 0.00 0.00 0.01 0.06 0.04 0.02 0.10 0.15 0.02 0.00
0.01 0.00 0.00 0.00 0.00 0.04 0.20 0.31 0.36 0.22 0.16 0.10 0.01 0.00 0.04 0.17 0.03 0.02 0.01 0.02 0.00 0.00 0.00 0.00 0.00 0.00 0.00 0.00 0.00 0.03 0.04 0.00 0.00 0.00 0.00 0.00 0.08 0.09 0.07 0.04 0.07 0.06 0.01
0.00 0.01 0.00 0.00 0.08 0.51 0.54 0.36 0.29 0.31 0.17 0.10 0.01 0.00 0.00 0.02 0.00 0.03 0.00 0.00 0.00 0.02 0.03 0.00 0.00 0.00 0.00 0.00 0.00 0.00 0.03 0.01 0.00 0.00 0.00 0.00 0.00 0.09 0.09 0.11 0.11 0.11 0.09
0.00 0.01 0.01 0.43 1.11 0.71 0.20 0.14 0.13 0.10 0.16 0.09 0.12 0.08 0.01 0.00 0.00 0.00 0.00 0.02 0.07 0.20 0.14 0.07 0.01 0.00 0.00 0.00 0.00 0.00 0.00 0.00 0.00 0.00 0.00 0.00 0.00 0.00 0.02 0.09 0.09 0.10 0.11
0.00 0.01 0.06 0.37 0.18 0.09 0.08 0.14 0.09 0.06 0.08 0.09 0.16 0.10 0.03 0.02 0.00 0.01 0.05 0.04 0.08 0.01 0.00 0.01 0.00 0.00 0.00 0.00 0.00 0.00 0.00 0.00 0.00 0.00 0.00 0.00 0.00 0.00 0.00 0.03 0.12 0.06 0.06
0.00 0.00 0.05 0.21 0.19 0.19 0.17 0.15 0.22 0.03 0.05 0.12 0.25 0.16 0.02 0.02 0.02 0.01 0.01 0.03 0.00 0.00 0.00 0.00 0.00 0.00 0.00 0.00 0.00 0.00 0.00 0.00 0.00 0.00 0.00 0.00 0.00 0.00 0.00 0.00 0.03 0.04 0.14
0.01 0.00 0.04 0.08 0.13 0.12 0.11 0.07 0.08 0.07 0.13 0.13 0.16 0.10 0.06 0.01 0.00 0.00 0.00 0.00 0.00 0.00 0.01 0.02 0.00 0.00 0.00 0.00 0.00 0.00 0.00 0.00 0.00 0.00 0.00 0.00 0.00 0.00 0.00 0.00 0.00 0.00 0.02
0.00 0.00 0.03 0.06 0.05 0.03 0.00 0.00 0.01 0.01 0.04 0.05 0.15 0.01 0.00 0.00 0.00 0.00 0.00 0.01 0.00 0.00 0.00 0.01 0.00 0.00 0.00 0.00 0.00 0.00 0.00 0.00 0.00 0.00 0.01 0.02 0.00 0.00 0.00 0.00 0.00 0.00 0.00
0.00 0.00 0.03 0.02 0.01 0.00 0.00 0.00 0.00 0.00 0.00 0.02 0.10 0.00 0.00 0.00 0.00 0.00 0.00 0.00 0.00 0.00 0.00 0.00 0.00 0.00 0.00 0.00 0.00 0.01 0.00 0.00 0.00 0.00 0.00 0.01 0.00 0.00 0.00 0.00 0.00 0.00 0.00
0.09 0.06 0.04 0.03 0.00 0.00 0.00 0.00 0.00 0.00 0.01 0.01 0.01 0.00 0.00 0.00 0.00 0.00 0.00 0.00 0.00 0.00 0.00 0.00 0.00 0.00 0.00 0.00 0.00 0.01 0.01 0.00 0.00 0.00 0.02 0.02 0.00 0.01 0.02 0.04 0.01 0.00 0.00
0.37 0.28 0.12 0.01 0.00 0.00 0.00 0.00 0.00 0.00 0.04 0.01 0.00 0.00 0.00 0.00 0.00 0.00 0.00 0.00 0.00 0.00 0.00 0.00 0.00 0.00 0.00 0.00 0.00 0.00 0.00 0.00 0.00 0.02 0.02 0.01 0.00 0.00 0.01 0.02 0.00 0.00 0.00
0.32 0.16 0.04 0.00 0.00 0.00 0.00 0.00 0.00 0.00 0.00 0.00 0.00 0.00 0.00 0.00 0.00 0.00 0.00 0.00 0.00 0.00 0.00 0.00 0.00 0.00 0.00 0.00 0.00 0.00 0.00 0.00 0.01 0.04 0.09 0.07 0.01 0.00 0.00 0.02 0.01 0.00 0.00

GFSSE_prec_prec_042.txt.gz
QPF
0.00 0.00 0.00 0.00 0.00 0.00 0.00 0.01 0.01 0.01 0.02 0.03 0.04 0.04 0.05 0.02 0.05 0.02 0.00 0.00 0.04 0.04 0.03 0.00 0.00 0.00 0.00 0.00 0.00 0.00 0.00 0.00 0.00 0.00 0.00 0.00 0.02 0.02 0.00 0.00 0.00 0.00 0.00
0.00 0.00 0.00 0.00 0.00 0.00 0.00 0.00 0.01 0.01 0.02 0.02 0.02 0.03 0.06 0.04 0.00 0.00 0.00 0.03 0.04 0.09 0.11 0.00 0.00 0.00 0.00 0.00 0.00 0.00 0.00 0.00 0.00 0.01 0.01 0.00 0.00 0.00 0.00 0.00 0.01 0.01 0.01
0.00 0.00 0.00 0.00 0.00 0.01 0.00 0.00 0.00 0.01 0.02 0.03 0.03 0.02 0.04 0.04 0.00 0.00 0.00 0.08 0.12 0.08 0.05 0.01 0.00 0.00 0.01 0.00 0.00 0.00 0.00 0.00 0.00 0.01 0.00 0.00 0.03 0.02 0.00 0.00 0.00 0.01 0.02
0.00 0.00 0.00 0.00 0.00 0.00 0.00 0.00 0.00 0.00 0.01 0.02 0.02 0.03 0.02 0.00 0.00 0.00 0.00 0.07 0.13 0.02 0.02 0.09 0.02 0.00 0.00 0.00 0.00 0.01 0.00 0.00 0.02 0.04 0.00 0.00 0.00 0.02 0.03 0.00 0.03 0.02 0.00
0.00 0.00 0.00 0.00 0.00 0.00 0.00 0.00 0.00 0.00 0.00 0.00 0.00 0.00 0.00 0.00 0.00 0.00 0.00 0.02 0.07 0.03 0.02 0.01 0.05 0.05 0.00 0.00 0.00 0.00 0.00 0.00 0.01 0.02 0.04 0.04 0.00 0.01 0.04 0.00 0.00 0.00 0.00
0.00 0.00 0.01 0.01 0.00 0.00 0.00 0.00 0.00 0.00 0.00 0.00 0.00 0.00 0.00 0.02 0.03 0.09 0.07 0.01 0.06 0.10 0.07 0.09 0.01 0.12 0.03 0.01 0.00 0.00 0.02 0.01 0.00 0.00 0.00 0.01 0.00 0.00 0.02 0.00 0.00 0.00 0.00
0.00 0.00 0.00 0.03 0.01 0.00 0.00 0.00 0.00 0.00 0.00 0.00 0.00 0.00 0.00 0.01 0.06 0.09 0.05 0.02 0.02 0.00 0.04 0.06 0.02 0.03 0.07 0.00 0.00 0.00 0.00 0.00 0.00 0.00 0.00 0.00 0.00 0.00 0.05 0.04 0.04 0.02 0.00
0.00 0.00 0.00 0.03 0.04 0.00 0.00 0.00 0.00 0.00 0.00 0.00 0.00 0.00 0.00 0.02 0.03 0.00 0.00 0.02 0.01 0.02 0.02 0.02 0.01 0.05 0.05 0.00 0.00 0.00 0.01 0.00 0.00 0.00 0.00 0.00 0.00 0.00 0.00 0.01 0.03 0.01 0.00
0.00 0.00 0.00 0.00 0.01 0.00 0.00 0.00 0.00 0.00 0.00 0.00 0.00 0.00 0.00 0.00 0.00 0.00 0.01 0.02 0.01 0.01 0.01 0.00 0.00 0.03 0.08 0.00 0.00 0.00 0.00 0.00 0.00 0.01 0.01 0.00 0.00 0.00 0.00 0.00 0.02 0.01 0.00
0.00 0.00 0.00 0.00 0.00 0.00 0.00 0.00 0.00 0.00 0.00 0.01 0.01 0.00 0.03 0.03 0.00 0.00 0.04 0.01 0.01 0.02 0.00 0.00 0.00 0.00 0.05 0.04 0.00 0.00 0.00 0.00 0.00 0.01 0.00 0.00 0.00 0.00 0.00 0.00 0.00 0.00 0.00
0.00 0.00 0.00 0.00 0.00 0.01 0.00 0.01 0.01 0.00 0.01 0.05 0.01 0.00 0.02 0.01 0.00 0.03 0.02 0.03 0.02 0.01 0.00 0.00 0.00 0.00 0.03 0.08 0.00 0.00 0.00 0.00 0.01 0.01 0.02 0.01 0.00 0.00 0.00 0.00 0.00 0.00 0.00
0.00 0.00 0.00 0.00 0.00 0.00 0.00 0.01 0.01 0.02 0.01 0.00 0.00 0.03 0.01 0.01 0.00 0.01 0.01 0.00 0.01 0.00 0.01 0.00 0.00 0.00 0.00 0.00 0.00 0.00 0.00 0.00 0.00 0.01 0.05 0.00 0.00 0.00 0.00 0.00 0.00 0.00 0.00
0.00 0.00 0.00 0.00 0.00 0.00 0.00 0.02 0.08 0.00 0.01 0.00 0.01 0.14 0.09 0.06 0.04 0.03 0.07 0.07 0.08 0.07 0.07 0.00 0.00 0.00 0.00 0.00 0.00 0.00 0.00 0.00 0.00 0.00 0.00 0.00 0.00 0.00 0.00 0.02 0.00 0.00 0.00
0.00 0.00 0.00 0.01 0.02 0.00 0.00 0.00 0.02 0.01 0.04 0.06 0.11 0.16 0.12 0.09 0.15 0.15 0.06 0.08 0.15 0.10 0.17 0.05 0.00 0.00 0.03 0.01 0.00 0.00 0.00 0.00 0.00 0.00 0.00 0.00 0.00 0.00 0.01 0.14 0.07 0.00 0.00
0.00 0.01 0.00 0.01 0.01 0.00 0.05 0.08 0.05 0.03 0.01 0.03 0.15 0.21 0.15 0.12 0.10 0.06 0.02 0.00 0.08 0.18 0.17 0.13 0.08 0.05 0.05 0.03 0.00 0.00 0.00 0.00 0.00 0.00 0.00 0.00 0.00 0.00 0.01 0.02 0.02 0.01 0.00
0.00 0.09 0.04 0.01 0.00 0.04 0.15 0.06 0.00 0.00 0.01 0.01 0.05 0.12 0.13 0.07 0.04 0.02 0.01 0.00 0.01 0.11 0.16 0.09 0.08 0.04 0.03 0.05 0.06 0.02 0.04 0.01 0.00 0.00 0.00 0.00 0.00 0.00 0.01 0.01 0.03 0.05 0.01
0.00 0.01 0.06 0.16 0.00 0.05 0.05 0.02 0.08 0.04 0.04 0.30 0.02 0.07 0.12 0.18 0.12 0.14 0.07 0.05 0.01 0.02 0.07 0.04 0.03 0.02 0.03 0.03 0.05 0.05 0.02 0.01 0.00 0.00 0.00 0.00 0.00 0.00 0.01 0.03 0.06 0.14 0.11
0.00 0.00 0.26 0.30 0.04 0.00 0.00 0.08 0.22 0.25 0.17 0.11 0.12 0.07 0.14 0.12 0.18 0.21 0.17 0.12 0.05 0.04 0.06 0.05 0.03 0.06 0.07 0.05 0.07 0.04 0.01 0.00 0.00 0.00 0.00 0.00 0.00 0.00 0.00 0.01 0.03 0.07 0.09
0.02 0.06 0.28 0.21 0.11 0.02 0.00 0.16 0.14 0.24 0.17 0.13 0.10 0.05 0.07 0.04 0.13 0.13 0.08 0.03 0.03 0.01 0.01 0.00 0.02 0.05 0.05 0.04 0.04 0.01 0.00 0.00 0.00 0.00 0.00 0.00 0.00 0.00 0.00 0.01 0.04 0.05 0.06
0.09 0.20 0.41 0.48 0.14 0.01 0.01 0.09 0.20 0.21 0.08 0.17 0.16 0.17 0.15 0.02 0.00 0.00 0.02 0.00 0.00 0.06 0.08 0.06 0.04 0.02 0.01 0.03 0.03 0.01 0.00 0.00 0.00 0.00 0.00 0.00 0.00 0.00 0.00 0.00 0.02 0.01 0.03
0.24 0.50 2.12 0.42 0.06 0.01 0.01 0.11 0.16 0.07 0.04 0.11 0.10 0.10 0.11 0.02 0.00 0.00 0.06 0.01 0.02 0.06 0.03 0.03 0.03 0.05 0.06 0.05 0.05 0.01 0.00 0.00 0.00 0.00 0.00 0.00 0.00 0.00 0.00 0.02 0.15 0.06 0.09
0.06 0.10 0.21 0.32 0.06 0.01 0.00 0.01 0.01 0.00 0.00 0.01 0.00 0.01 0.02 0.04 0.02 0.01 0.03 0.03 0.02 0.03 0.03 0.06 0.09 0.07 0.04 0.06 0.04 0.03 0.02 0.02 0.01 0.00 0.00 0.00 0.00 0.00 0.00 0.03 0.09 0.10 0.09
0.00 0.02 0.28 0.03 0.00 0.00 0.00 0.00 0.00 0.00 0.00 0.00 0.00 0.01 0.02 0.05 0.05 0.04 0.04 0.02 0.01 0.00 0.01 0.05 0.06 0.04 0.02 0.01 0.03 0.07 0.08 0.06 0.07 0.01 0.00 0.00 0.00 0.00 0.00 0.00 0.00 0.03 0.09
0.00 0.00 0.04 0.00 0.00 0.00 0.00 0.00 0.00 0.00 0.00 0.00 0.00 0.00 0.00 0.00 0.00 0.00 0.00 0.00 0.00 0.01 0.03 0.03 0.06 0.08 0.10 0.09 0.05 0.03 0.05 0.07 0.14 0.11 0.02 0.00 0.00 0.00 0.00 0.00 0.01 0.07 0.12
0.00 0.00 0.00 0.00 0.00 0.00 0.00 0.00 0.01 0.04 0.01 0.00 0.00 0.01 0.01 0.00 0.00 0.00 0.01 0.01 0.02 0.08 0.08 0.09 0.12 0.13 0.13 0.09 0.05 0.03 0.03 0.05 0.13 0.17 0.12 0.03 0.01 0.01 0.01 0.01 0.02 0.07 0.03
0.00 0.00 0.00 0.00 0.00 0.00 0.00 0.00 0.01 0.03 0.01 0.00 0.00 0.00 0.00 0.00 0.00 0.01 0.01 0.01 0.01 0.05 0.06 0.05 0.07 0.07 0.08 0.04 0.02 0.05 0.10 0.08 0.10 0.20 0.20 0.15 0.08 0.01 0.01 0.01 0.01 0.01 0.04

GFSSE_prec_prec_048.txt.gz
QPF
0.00 0.00 0.00 0.00 0.00 0.00 0.00 0.00 0.01 0.01 0.00 0.00 0.00 0.01 0.01 0.01 0.00 0.00 0.00 0.00 0.00 0.00 0.00 0.00 0.00 0.00 0.00 0.00 0.00 0.00 0.00 0.00 0.00 0.00 0.00 0.04 0.00 0.00 0.00 0.01 0.01 0.00 0.00
0.00 0.00 0.00 0.00 0.00 0.00 0.00 0.01 0.01 0.02 0.00 0.02 0.03 0.09 0.01 0.02 0.01 0.00 0.00 0.00 0.00 0.00 0.00 0.00 0.00 0.00 0.01 0.00 0.01 0.00 0.00 0.00 0.00 0.00 0.00 0.01 0.00 0.00 0.00 0.01 0.00 0.00 0.00
0.00 0.00 0.00 0.00 0.00 0.00 0.00 0.00 0.00 0.02 0.00 0.00 0.01 0.04 0.03 0.02 0.00 0.00 0.00 0.00 0.00 0.00 0.00 0.00 0.03 0.01 0.01 0.01 0.00 0.00 0.00 0.00 0.00 0.01 0.00 0.00 0.00 0.00 0.00 0.03 0.01 0.01 0.00
0.00 0.00 0.00 0.00 0.00 0.00 0.00 0.00 0.00 0.00 0.00 0.00 0.00 0.01 0.02 0.01 0.00 0.00 0.01 0.00 0.00 0.00 0.00 0.02 0.04 0.01 0.00 0.00 0.00 0.00 0.00 0.00 0.00 0.01 0.01 0.01 0.00 0.00 0.00 0.00 0.01 0.00 0.06
0.00 0.00 0.00 0.00 0.00 0.00 0.00 0.00 0.00 0.01 0.03 0.01 0.00 0.00 0.00 0.00 0.00 0.00 0.00 0.00 0.00 0.00 0.00 0.02 0.13 0.01 0.00 0.00 0.00 0.00 0.00 0.00 0.00 0.00 0.03 0.01 0.00 0.00 0.00 0.00 0.00 0.00 0.00
0.00 0.00 0.00 0.00 0.00 0.00 0.00 0.00 0.00 0.00 0.01 0.01 0.00 0.01 0.02 0.02 0.00 0.00 0.00 0.00 0.00 0.01 0.01 0.00 0.04 0.07 0.00 0.00 0.00 0.00 0.00 0.00 0.00 0.00 0.00 0.00 0.00 0.00 0.00 0.00 0.00 0.00 0.00
0.00 0.00 0.00 0.00 0.00 0.00 0.00 0.00 0.00 0.00 0.00 0.01 0.00 0.00 0.00 0.01 0.01 0.00 0.00 0.00 0.00 0.00 0.02 0.03 0.00 0.05 0.01 0.00 0.00 0.00 0.00 0.00 0.00 0.00 0.00 0.00 0.00 0.00 0.00 0.00 0.00 0.00 0.00
0.00 0.00 0.00 0.00 0.00 0.00 0.00 0.00 0.00 0.00 0.00 0.00 0.00 0.00 0.00 0.00 0.00 0.00 0.00 0.00 0.00 0.00 0.00 0.06 0.02 0.00 0.06 0.00 0.00 0.00 0.00 0.00 0.00 0.00 0.00 0.00 0.00 0.00 0.00 0.00 0.00 0.00 0.00
0.00 0.00 0.00 0.00 0.00 0.00 0.00 0.00 0.00 0.00 0.00 0.00 0.00 0.00 0.00 0.00 0.00 0.01 0.00 0.00 0.00 0.00 0.00 0.04 0.07 0.01 0.05 0.02 0.00 0.00 0.00 0.00 0.00 0.00 0.00 0.00 0.00 0.00 0.00 0.00 0.00 0.00 0.00
0.00 0.00 0.00 0.00 0.00 0.00 0.00 0.01 0.01 0.00 0.00 0.00 0.00 0.00 0.01 0.00 0.00 0.00 0.00 0.00 0.00 0.00 0.00 0.00 0.00 0.02 0.02 0.02 0.00 0.00 0.00 0.00 0.00 0.01 0.00 0.00 0.00 0.00 0.00 0.00 0.00 0.00 0.00
0.00 0.00 0.00 0.00 0.03 0.04 0.01 0.00 0.00 0.00 0.00 0.01 0.00 0.00 0.00 0.00 0.05 0.04 0.01 0.01 0.00 0.00 0.00 0.00 0.00 0.01 0.05 0.04 0.00 0.00 0.00 0.00 0.00 0.00 0.00 0.00 0.00 0.00 0.00 0.00 0.00 0.00 0.00
0.00 0.00 0.00 0.00 0.00 0.00 0.00 0.03 0.00 0.00 0.00 0.00 0.02 0.03 0.01 0.12 0.55 0.49 0.15 0.05 0.00 0.00 0.00 0.00 0.03 0.00 0.00 0.00 0.00 0.00 0.00 0.00 0.00 0.01 0.01 0.01 0.00 0.00 0.00 0.00 0.00 0.00 0.00
0.00 0.00 0.00 0.00 0.02 0.00 0.06 0.22 0.03 0.00 0.08 0.12 0.11 0.11 0.10 0.25 0.58 0.79 0.18 0.05 0.03 0.03 0.02 0.02 0.01 0.00 0.00 0.00 0.01 0.00 0.00 0.00 0.01 0.01 0.01 0.03 0.01 0.00 0.00 0.00 0.00 0.00 0.00
0.00 0.00 0.00 0.00 0.00 0.01 0.03 0.19 0.03 0.06 0.68 1.31 0.14 0.09 0.11 0.11 0.07 0.06 0.02 0.02 0.08 0.17 0.20 0.24 0.25 0.05 0.03 0.00 0.00 0.00 0.00 0.00 0.00 0.00 0.02 0.03 0.02 0.00 0.00 0.00 0.00 0.00 0.00
0.00 0.00 0.00 0.00 0.01 0.05 0.07 0.11 0.08 0.12 0.28 0.31 0.17 0.03 0.00 0.01 0.00 0.00 0.00 0.00 0.00 0.05 0.11 0.11 0.69 0.34 0.15 0.02 0.00 0.00 0.00 0.00 0.00 0.00 0.00 0.05 0.05 0.04 0.02 0.00 0.00 0.00 0.00
0.21 0.13 0.11 0.03 0.11 0.25 0.16 0.12 0.09 0.09 0.10 0.06 0.02 0.00 0.00 0.00 0.00 0.00 0.00 0.00 0.00 0.03 0.09 0.06 0.19 0.31 0.17 0.02 0.00 0.00 0.00 0.00 0.00 0.00 0.01 0.05 0.04 0.04 0.01 0.00 0.00 0.00 0.04
0.89 0.71 0.21 0.15 0.26 0.18 0.25 0.18 0.06 0.04 0.01 0.00 0.00 0.00 0.00 0.00 0.00 0.00 0.00 0.00 0.05 0.55 0.53 0.17 0.08 0.14 0.10 0.07 0.03 0.00 0.00 0.00 0.00 0.00 0.00 0.00 0.00 0.01 0.03 0.03 0.00 0.02 0.07
1.05 0.84 0.05 0.01 0.04 0.05 0.06 0.10 0.12 0.11 0.05 0.04 0.00 0.00 0.00 0.00 0.00 0.00 0.00 0.02 0.05 0.90 0.60 0.26 0.23 0.24 0.06 0.09 0.07 0.03 0.05 0.02 0.00 0.00 0.00 0.00 0.00 0.00 0.01 0.03 0.05 0.02 0.06
0.58 0.15 0.01 0.02 0.05 0.01 0.01 0.06 0.17 0.15 0.09 0.03 0.03 0.02 0.00 0.00 0.00 0.01 0.02 0.06 0.11 0.14 0.29 0.20 0.15 0.13 0.10 0.06 0.03 0.02 0.01 0.06 0.03 0.00 0.00 0.00 0.00 0.00 0.00 0.01 0.06 0.07 0.07
0.06 0.01 0.00 0.00 0.02 0.02 0.01 0.07 0.06 0.18 0.20 0.03 0.01 0.03 0.01 0.00 0.00 0.02 0.09 0.10 0.10 0.14 0.14 0.12 0.10 0.10 0.09 0.06 0.06 0.03 0.04 0.00 0.00 0.00 0.00 0.00 0.00 0.00 0.00 0.04 0.09 0.07 0.06
0.00 0.00 0.00 0.00 0.00 0.01 0.02 0.01 0.00 0.00 0.06 0.03 0.01 0.03 0.00 0.01 0.09 0.17 0.25 0.20 0.18 0.16 0.13 0.07 0.08 0.08 0.02 0.05 0.07 0.05 0.04 0.01 0.00 0.00 0.00 0.00 0.00 0.00 0.00 0.00 0.10 0.03 0.07
0.01 0.00 0.00 0.00 0.00 0.00 0.01 0.00 0.00 0.00 0.00 0.01 0.01 0.02 0.02 0.01 0.13 0.17 0.20 0.22 0.19 0.13 0.12 0.09 0.05 0.03 0.01 0.06 0.09 0.09 0.03 0.02 0.02 0.02 0.03 0.01 0.00 0.00 0.00 0.05 0.06 0.17 0.27
0.00 0.00 0.00 0.00 0.03 0.01 0.00 0.00 0.00 0.00 0.00 0.00 0.00 0.01 0.01 0.03 0.10 0.14 0.10 0.06 0.06 0.04 0.03 0.04 0.03 0.06 0.06 0.08 0.09 0.08 0.06 0.07 0.07 0.06 0.03 0.05 0.03 0.13 0.04 0.10 0.13 0.83 0.96
0.00 0.00 0.00 0.01 0.08 0.00 0.00 0.00 0.00 0.01 0.01 0.01 0.01 0.05 0.06 0.05 0.02 0.01 0.00 0.00 0.00 0.00 0.02 0.06 0.07 0.06 0.08 0.06 0.09 0.12 0.12 0.09 0.12 0.15 0.25 0.19 0.21 0.18 0.21 0.17 0.13 0.40 0.72
0.00 0.00 0.00 0.01 0.03 0.00 0.00 0.00 0.01 0.04 0.03 0.00 0.01 0.02 0.04 0.05 0.01 0.00 0.02 0.01 0.01 0.03 0.02 0.02 0.05 0.08 0.09 0.05 0.05 0.08 0.11 0.06 0.05 0.13 0.18 0.16 0.06 0.01 0.02 0.04 0.10 0.14 0.13
0.00 0.00 0.00 0.03 0.01 0.00 0.00 0.00 0.00 0.01 0.02 0.00 0.00 0.00 0.00 0.01 0.00 0.01 0.03 0.02 0.01 0.05 0.07 0.09 0.16 0.12 0.10 0.12 0.11 0.10 0.06 0.09 0.10 0.09 0.16 0.18 0.15 0.06 0.02 0.01 0.04 0.09 0.12